Regional Weather Roundup
Issued by NWS Cleveland, OH

Home | Current Version | Previous Version | Graphics & Text | Print | Product List | Glossary On
Versions: 1 2 3 4 5 6 7 8 9 10 11 12 13 14 15 16 17 18 19 20 21 22 23 24 25 26 27 28 29 30 31 32 33 34 35 36 37 38 39 40 41 42 43 44 45 46 47 48 49 50
000
ASUS41 KCLE 130310
RWRCLE
OHIO REGIONAL WEATHER ROUNDUP
NATIONAL WEATHER SERVICE WILMINGTON, OH
1000 PM EST TUE DEC 12 2017

NOTE: "FAIR" INDICATES FEW OR NO CLOUDS BELOW 12,000 FEET WITH NO
SIGNIFICANT WEATHER AND/OR OBSTRUCTIONS TO VISIBILITY.

OHZ001>008-015>018-024>027-034-035-043-044-130400-
   NORTHWEST OHIO

CITY           SKY/WX    TMP DP  RH WIND       PRES   REMARKS
DEFIANCE       CLOUDY    19  10  68 NW10      29.95S WCI   7
FINDLAY        CLOUDY    20   6  55 NW12      29.92S WCI   8
TOLEDO EXPRESS CLOUDY    18   6  59 W10       29.93S WCI   6
TOLEDO EXEC    CLOUDY    18   4  54 NW15      29.94R WCI   4
LIMA           LGT SNOW  19  16  88 NW12      29.93S FOG     WCI   7
$$

OHZ009>014-019>023-028>033-038-089-130400-
   NORTHEAST OHIO

CITY           SKY/WX    TMP DP  RH WIND       PRES   REMARKS
CLE-HOPKINS    CLOUDY    19   4  51 NW26G38   29.87S WCI   1
CLE-LAKEFRONT    N/A     20   8  60 NW32G40   29.84F WCI   1
CUY CO. ARPT   CLOUDY    19   5  53 W17       29.82F WCI   4
LORAIN-ELYRIA  CLOUDY    18   2  49 NW13G24   29.87S WCI   5
ASHTABULA      LGT SNOW  16   6  65 NW13G23   29.77F WCI   2
AKRON-CANTON   LGT SNOW  16  10  77 W12       29.81F VSB 1   WCI   3
WOOSTER        FAIR      14   5  67 NW15G23   29.85S WCI  -1
MANSFIELD      MOCLDY    15   4  61 W8        29.85F WCI   4
YOUNGSTOWN     LGT SNOW  15  11  83 W9        29.76F VSB 3/4 WCI   3
$$

OHZ042-051>053-060>062-070>072-077>081-130400-
  SOUTHWEST OHIO

CITY           SKY/WX    TMP DP  RH WIND       PRES   REMARKS
CINC-COVINGTON FAIR      20   9  62 NW9       30.00S WCI   9
CINC-LUNKEN    FAIR      22   8  55 NW7       30.05S WCI  13
HAMILTON       FAIR      20   9  62 W7        30.03S WCI  11
DAYTON         CLOUDY    19  10  68 W15       29.97S WCI   5
WRIGHT-PAT AFB CLOUDY    20   7  55 W10       29.97S WCI   9
DAYTON GENERAL MOCLDY    20   8  60 W9        29.97S WCI   9
WILMINGTON     CLOUDY    21  10  62 NW12      29.96S WCI   9
$$

OHZ036-037-039>041-045>050-054>059-063>069-073>076-082>088-130400-
  CENTRAL AND SOUTHEAST OHIO

CITY           SKY/WX    TMP DP  RH WIND       PRES   REMARKS
COLUMBUS       LGT SNOW  20  16  84 NW15      29.93S FOG     WCI   6
OSU AIRPORT    LGT SNOW  19  16  88 NW12      29.93S VSB 3/4 WCI   7
BOLTON FIELD   LGT SNOW  19  16  86 NW7       29.94F WCI  10
RICKENBACK AFB CLOUDY    19  17  91 W8        29.95S WCI   9
NEWARK         LGT SNOW  20  11  68 NW10      29.91S WCI   9
MARION         CLOUDY    19   5  54 NW14G22   29.91S WCI   6
LANCASTER      LGT SNOW  19  15  84 VRB7      29.93S FOG     WCI  10
ZANESVILLE     CLOUDY    21   8  57 NW14      29.89S WCI   8
NEW PHILLY     FAIR      16   5  62 W8        29.87F WCI   5
$$




USA.gov is the U.S. government's official web portal to all federal, state and local government web resources and services.